Weather History for Pine Ridge, SD

Change the Weather History Date:

Monday, March 19, 2012

  Actual Average Record
Temperature  
Mean Temperature 48 °F 38 °F  
Max Temperature 61 °F 52 °F 80 °F (2004)
Min Temperature 35 °F 24 °F 12 °F (2013)
Degree Days  
Heating Degree Days 17 27  
Month to date heating degree days 368 583  
Since 1 July heating degree days 5432 5933  
Cooling Degree Days 0 0  
Month to date cooling degree days 0 0  
Year to date cooling degree days 0 0  
Moisture  
Dew Point 15 °F    
Average Humidity 40    
Maximum Humidity 70    
Minimum Humidity 9    
Precipitation  
Precipitation 0.00 in 0.03 in 0.06 in (2006)
Month to date precipitation T 0.43  
Year to date precipitation 1.37 1.22  
Sea Level Pressure  
Sea Level Pressure 29.47 in    
Wind  
Wind Speed 11 mph (WSW)    
Max Wind Speed 24 mph    
Max Gust Speed 33 mph    
Visibility 10 miles    
Events      
T = Trace of Precipitation, MM = Missing Value Source: NWS Daily Summary

Daily Weather History Graph

Daily Weather History Graph

Search for Another Location

Airport:

Trip Planner

Search our weather history database for the weather conditions in past years. The results will help you decide how hot, cold, wet, or windy it might be!

Date:

Astronomy

Mar. 19, 2012 Rise Set
Actual Time 6:54 AM MDT 7:01 PM MDT
Civil Twilight 6:25 AM MDT 7:30 PM MDT
Nautical Twilight 5:52 AM MDT 8:03 PM MDT
Astronomical Twilight 5:18 AM MDT 8:37 PM MDT
Moon 5:10 AM MDT (3/19) 4:29 PM MDT (3/19)
Length of Visible Light 13h 04m
Length of Day
12h 07m
Waning Crescent, 8% of the Moon is Illuminated
Mar 19
Waning Crescent
Mar 22
New
Mar 30
First Quarter
Apr 6
Full
Apr 13
Last Quarter

Hourly Weather History & Observations

Time (MDT) Temp. Windchill Dew Point Humidity Pressure Visibility Wind Dir Wind Speed Gust Speed Precip Events Conditions
12:52 AM 57.0 °F - 30.9 °F 37% 29.28 in 9.0 mi WNW 19.6 mph 35.7 mph N/A   Overcast
1:52 AM 51.1 °F - 30.0 °F 44% 29.32 in 10.0 mi West 10.4 mph - N/A   Mostly Cloudy
2:52 AM 48.0 °F - 28.0 °F 46% 29.33 in 10.0 mi West 9.2 mph - N/A   Clear
3:52 AM 43.0 °F 38.8 °F 25.0 °F 49% 29.35 in 10.0 mi SSW 6.9 mph - N/A   Clear
4:52 AM 41.0 °F 35.8 °F 25.0 °F 53% 29.38 in 10.0 mi SSW 8.1 mph - N/A   Clear
6:52 AM 41.0 °F 35.8 °F 19.9 °F 43% 29.44 in 10.0 mi SW 8.1 mph - N/A   Clear
7:52 AM 42.1 °F 37.1 °F 16.0 °F 35% 29.46 in 10.0 mi SSW 8.1 mph - N/A   Clear
9:52 AM 50.0 °F - 15.1 °F 25% 29.44 in 10.0 mi SW 21.9 mph 27.6 mph N/A   Clear
10:52 AM 54.0 °F - 10.9 °F 18% 29.44 in 10.0 mi WSW 18.4 mph 27.6 mph N/A   Clear
11:52 AM 55.0 °F - 7.0 °F 15% 29.44 in 10.0 mi WSW 19.6 mph 26.5 mph N/A   Clear
12:52 PM 57.0 °F - 3.0 °F 11% 29.45 in 10.0 mi WSW 19.6 mph 26.5 mph N/A   Clear
1:52 PM 59.0 °F - 1.9 °F 10% 29.43 in 10.0 mi WSW 13.8 mph 25.3 mph N/A   Clear
2:52 PM 59.0 °F - 3.0 °F 11% 29.44 in 10.0 mi SW 15.0 mph 23.0 mph N/A   Clear
3:52 PM 59.0 °F - 1.9 °F 10% 29.46 in 10.0 mi WSW 19.6 mph 25.3 mph N/A   Clear
4:52 PM 57.9 °F - 1.0 °F 10% 29.47 in 10.0 mi WSW 11.5 mph 24.2 mph N/A   Clear
5:52 PM 57.0 °F - -0.0 °F 10% 29.48 in 10.0 mi WSW 15.0 mph 23.0 mph N/A   Clear
6:52 PM 53.1 °F - 5.0 °F 14% 29.51 in 10.0 mi West 9.2 mph - N/A   Clear
7:52 PM 48.9 °F - 10.9 °F 22% 29.56 in 10.0 mi West 15.0 mph 21.9 mph N/A   Clear
8:52 PM 45.0 °F 39.7 °F 24.1 °F 44% 29.59 in 10.0 mi West 10.4 mph 20.7 mph N/A   Clear
9:52 PM 39.0 °F - 26.1 °F 60% 29.66 in 10.0 mi Calm Calm - N/A   Clear
10:52 PM 39.0 °F - 27.0 °F 62% 29.68 in 10.0 mi Calm Calm - N/A   Clear
11:52 PM 36.0 °F 31.1 °F 27.0 °F 70% 29.72 in 10.0 mi North 5.8 mph - N/A   Clear